This is the latest recevied weather packets stored in our database for station/object vk4zu-13. If no packets are shown the sender has not sent any weather packets the latest 1 day(s).
| Time | Temp. | Humidity | Pressure | Rain* | Wind** | Luminosity | Snow |
|---|---|---|---|---|---|---|---|
| 1778049490 | 21.67° C | 89% | 1016.3 hPa | 2.29 mm | - | 19 W/m² | - |
| 1778049420 | 21.67° C | 89% | 1016.2 hPa | 2.29 mm | - | 26 W/m² | - |
| 1778049350 | 21.67° C | 89% | 1016.3 hPa | 2.29 mm | - | 53 W/m² | - |
| 1778049208 | 21.67° C | 89% | 1016.3 hPa | 2.29 mm | - | 40 W/m² | - |
| 1778049138 | 21.67° C | 90% | 1016.3 hPa | 2.29 mm | - | 40 W/m² | - |
| 1778049072 | 21.67° C | 90% | 1016.4 hPa | 2.29 mm | - | 42 W/m² | - |
| 1778048941 | 21.67° C | 90% | 1016.3 hPa | 2.29 mm | - | 51 W/m² | - |
| 1778048868 | 21.67° C | 89% | 1016.3 hPa | 2.03 mm | - | 51 W/m² | - |
| 1778048801 | 21.67° C | 89% | 1016.3 hPa | 2.03 mm | - | 51 W/m² | - |
| 1778048729 | 21.67° C | 90% | 1016.3 hPa | 2.03 mm | - | 63 W/m² | - |
| 1778048620 | 21.67° C | 89% | 1016.2 hPa | 2.03 mm | - | 63 W/m² | - |
| 1778048422 | 21.67° C | 89% | 1016.2 hPa | 1.78 mm | - | 70 W/m² | - |
| 1778048226 | 21.67° C | 90% | 1016.2 hPa | 1.78 mm | - | 76 W/m² | - |
| 1778048166 | 21.67° C | 89% | 1016.2 hPa | 1.52 mm | - | 79 W/m² | - |
| 1778048033 | 21.67° C | 89% | 1016.1 hPa | 1.52 mm | - | 151 W/m² | - |
| 1778047968 | 21.67° C | 89% | 1016.2 hPa | 1.52 mm | - | 153 W/m² | - |
| 1778047898 | 21.67° C | 89% | 1016.2 hPa | 1.52 mm | - | 167 W/m² | - |
| 1778047765 | 21.67° C | 89% | 1016.3 hPa | 1.52 mm | - | 163 W/m² | - |
| 1778047697 | 21.67° C | 89% | 1016.3 hPa | 1.52 mm | - | 104 W/m² | - |
| 1778047572 | 21.67° C | 89% | 1016.2 hPa | 1.27 mm | - | 149 W/m² | - |
| 1778046991 | 22.22° C | 88% | 1016.3 hPa | 0.76 mm | - | 128 W/m² | - |
| 1778046928 | 22.22° C | 89% | 1016.3 hPa | 0.76 mm | - | 128 W/m² | - |
| 1778046864 | 22.22° C | 88% | 1016.3 hPa | 0.51 mm | - | 132 W/m² | - |
| 1778046803 | 22.22° C | 88% | 1016.4 hPa | 0.51 mm | - | 142 W/m² | - |
| 1778046676 | 22.22° C | 86% | 1016.4 hPa | 0.51 mm | - | 160 W/m² | - |
* Rain latest hour (hover to see other rain measurements)
** Current wind speed in m/s (hover to see current wind gust speed)